Weather History for Gillette, WY

Change the Weather History Date:

Monday, August 26, 2013

  Actual Average Record
Temperature  
Mean Temperature 81 °F 67 °F  
Max Temperature 92 °F 84 °F 100 °F (1926)
Min Temperature 69 °F 51 °F 36 °F (1967)
Degree Days  
Heating Degree Days 0 2  
Month to date heating degree days 0 26  
Since 1 June heating degree days 117 187  
Since 1 July heating degree days 0 45  
Cooling Degree Days 16 4  
Month to date cooling degree days 198 160  
Year to date cooling degree days 470 442  
Since 1 June cooling degree days 462 434  
Growing Degree Days 31 (Base 50)    
Moisture  
Dew Point 47 °F    
Average Humidity 34    
Maximum Humidity 49    
Minimum Humidity 19    
Precipitation  
Precipitation 0.00 in 0.03 in 0.37 in (2002)
Month to date precipitation 0.99 0.81  
Year to date precipitation 13.43 10.34  
Sea Level Pressure  
Sea Level Pressure 29.86 in    
Wind  
Wind Speed 10 mph (SW)    
Max Wind Speed 25 mph    
Max Gust Speed 32 mph    
Visibility 10 miles    
Events      
T = Trace of Precipitation, MM = Missing Value Source: NWS Daily Summary

Daily Weather History Graph

Daily Weather History Graph

Search for Another Location

Airport:

Trip Planner

Search our weather history database for the weather conditions in past years. The results will help you decide how hot, cold, wet, or windy it might be!

Date:

Astronomy

Aug. 26, 2013 Rise Set
Actual Time 6:18 AM MDT 7:48 PM MDT
Civil Twilight 5:47 AM MDT 8:18 PM MDT
Nautical Twilight 5:11 AM MDT 8:55 PM MDT
Astronomical Twilight 4:31 AM MDT 9:34 PM MDT
Moon 10:44 PM MDT (8/26) 12:38 PM MDT (8/26)
Length of Visible Light 14h 30m
Length of Day
13h 30m
Waning Gibbous, 66% of the Moon is Illuminated
Aug 26
Waning Gibbous
Aug 28
Last Quarter
Sep 5
New
Sep 12
First Quarter
Sep 19
Full

Hourly Weather History & Observations

Time (MDT) Temp. Dew Point Humidity Pressure Visibility Wind Dir Wind Speed Gust Speed Precip Events Conditions
12:53 AM 77.0 °F 48.0 °F 36% 29.85 in 10.0 mi SW 9.2 mph - N/A   Mostly Cloudy
1:53 AM 77.0 °F 48.0 °F 36% 29.84 in 10.0 mi South 6.9 mph - N/A   Overcast
2:53 AM 75.9 °F 46.9 °F 36% 29.84 in 10.0 mi SW 11.5 mph - N/A   Overcast
3:53 AM 75.9 °F 46.9 °F 36% 29.84 in 10.0 mi South 12.7 mph - N/A   Overcast
4:53 AM 73.9 °F 46.9 °F 38% 29.85 in 10.0 mi South 13.8 mph - N/A   Overcast
5:53 AM 73.0 °F 48.0 °F 41% 29.86 in 10.0 mi South 16.1 mph - N/A   Mostly Cloudy
6:53 AM 71.1 °F 48.9 °F 45% 29.86 in 10.0 mi South 12.7 mph - N/A   Clear
7:53 AM 72.0 °F 51.1 °F 48% 29.86 in 10.0 mi SSW 15.0 mph 23.0 mph N/A   Clear
8:53 AM 75.0 °F 51.1 °F 43% 29.84 in 10.0 mi SW 24.2 mph 32.2 mph N/A   Clear
9:53 AM 80.1 °F 48.9 °F 34% 29.85 in 10.0 mi WSW 21.9 mph 27.6 mph N/A   Clear
10:53 AM 81.0 °F 48.0 °F 31% 29.87 in 10.0 mi WSW 16.1 mph - N/A   Clear
11:53 AM 86.0 °F 46.0 °F 25% 29.86 in 10.0 mi NW 13.8 mph 19.6 mph N/A   Clear
12:53 PM 87.1 °F 44.1 °F 22% 29.86 in 10.0 mi NNW 16.1 mph 19.6 mph N/A   Clear
1:53 PM 89.1 °F 45.0 °F 22% 29.86 in 10.0 mi NNW 10.4 mph 17.3 mph N/A   Clear
2:53 PM 89.1 °F 44.1 °F 21% 29.85 in 10.0 mi Variable 6.9 mph 16.1 mph N/A   Clear
3:53 PM 91.0 °F 44.1 °F 20% 29.84 in 10.0 mi North 5.8 mph - N/A   Clear
4:53 PM 90.0 °F 44.1 °F 20% 29.85 in 10.0 mi North 11.5 mph - N/A   Clear
5:53 PM 90.0 °F 43.0 °F 19% 29.84 in 10.0 mi Calm Calm - N/A   Clear
6:53 PM 81.0 °F 46.9 °F 30% 29.86 in 10.0 mi Calm Calm - N/A   Clear
7:53 PM 80.1 °F 46.9 °F 31% 29.86 in 10.0 mi Calm Calm - N/A   Clear
8:53 PM 73.9 °F 48.0 °F 40% 29.88 in 10.0 mi Calm Calm - N/A   Clear
9:53 PM 72.0 °F 48.0 °F 43% 29.88 in 10.0 mi Calm Calm - N/A   Mostly Cloudy
10:53 PM 75.0 °F 48.0 °F 38% 29.87 in 10.0 mi Calm Calm - N/A   Overcast
11:53 PM 71.1 °F 48.0 °F 44% 29.86 in 10.0 mi South 5.8 mph - N/A   Clear